Regional Weather Roundup
Issued by NWS Little Rock, AR

Home | Current Version | Previous Version | Graphics & Text | Print | Product List | Glossary On
Versions: 1 2 3 4 5 6 7 8 9 10 11 12 13 14 15 16 17 18 19 20 21 22 23 24 25 26 27 28 29 30 31 32 33 34 35 36 37 38 39 40 41 42 43 44 45 46 47 48 49 50
000
ASUS44 KLZK 031705
RWRLZK

WEATHER ROUNDUP FOR ARKANSAS
NATIONAL WEATHER SERVICE LITTLE ROCK AR
1100 AM CST TUE MAR 03 2015

NOTE: "FAIR" INDICATES FEW OR NO CLOUDS BELOW 12,000 FEET WITH NO
SIGNIFICANT WEATHER AND/OR OBSTRUCTIONS TO VISIBILITY.

ARZ001-003-010-029-031800-
NORTHWEST ARKANSAS

CITY           SKY/WX    TMP DP  RH WIND       PRES   REMARKS
FAYETTEVILLE   CLOUDY    47  46  97 SW15G23   29.95S
FORT SMITH     FOG       38  37  97 E6        30.01F VSB 3/4
HARRISON       CLOUDY    55  52  89 VRB7      29.90F
BENTONVILLE    CLOUDY    45  43  93 SW16G29   29.92F
ROGERS         CLOUDY    46  46 100 SW16G24   29.91F FOG
SILOAM SPGS    CLOUDY    43  39  87 S18G24    29.93F
HIGHFILL       CLOUDY    44  43  96 SW15G26   29.91S FOG
SPRINGDALE     CLOUDY    46  46 100 SW14G22   29.95R
$$

ARZ004-005-016-031800-
NORTH CENTRAL ARKANSAS

CITY           SKY/WX    TMP DP  RH WIND       PRES   REMARKS
BATESVILLE     CLOUDY    41  37  87 SE6       30.00F
FLIPPIN        CLOUDY    46  41  81 SE3       29.91F
MTN HOME       CLOUDY    47  43  86 S8        29.91F
$$

ARZ040-041-031800-
WEST CENTRAL ARKANSAS

CITY           SKY/WX    TMP DP  RH WIND       PRES   REMARKS
MENA           CLOUDY    52  50  93 W3        29.98F
MOUNT IDA      CLOUDY    46  44  93 CALM      29.99F FOG
$$

ARZ009-017-025-026-028-031800-
NORTHEAST ARKANSAS

CITY           SKY/WX    TMP DP  RH WIND       PRES   REMARKS
CORNING        FAIR      39  39 100 SW16      29.99F FOG
JONESBORO      CLOUDY    41  41 100 SW6       30.02S FOG
NEWPORT        LGT RAIN  40  40 100 SW12      30.04F FOG
WALNUT RIDGE   CLOUDY    39  36  87 S16       30.01F
BLYTHEVILLE    CLOUDY    48  48 100 S14G22    30.01F FOG
$$

ARZ022-023-033-042-044-031800-
CENTRAL ARKANSAS

CITY           SKY/WX    TMP DP  RH WIND       PRES   REMARKS
LITTLE ROCK    CLOUDY    42  38  85 SW8       30.06S FOG
N LITTLE ROCK  CLOUDY    42  42 100 SW10G16   30.06S
JACKSONVILLE   CLOUDY    43  42  97 SW6       30.03F
SEARCY           N/A     41  40  96 S5        30.05F FOG
HOT SPRINGS    LGT RAIN  39  38  96 CALM      30.05S VSB 1
RUSSELLVILLE   CLOUDY    43  40  89 SE5       30.00F
CLINTON        CLOUDY    39  37  93 CALM      30.01F FOG
$$

ARZ036-031800-
EAST ARKANSAS

CITY           SKY/WX    TMP DP  RH WIND       PRES   REMARKS
WEST MEMPHIS   LGT RAIN  47  47 100 S10       30.04F VSB 3/4
$$

ARZ050-053-066-070-073-031800-
SOUTHWEST ARKANSAS

CITY           SKY/WX    TMP DP  RH WIND       PRES   REMARKS
ARKADELPHIA    CLOUDY    39  39 100 CALM      30.09R FOG
CAMDEN         FOG       43  41  93 CALM      30.07F VSB<1/4
TEXARKANA      FOG       46  45  96 CALM      30.04F VSB 1/4
EL DORADO      FOG       46  46 100 SE3       30.05F VSB 1/4
DE QUEEN         N/A     42  41  96 E5        30.01F
$$

ARZ056-057-069-031800-
SOUTHEAST ARKANSAS

CITY           SKY/WX    TMP DP  RH WIND       PRES   REMARKS
PINE BLUFF     FOG       42  42 100 S3        30.06F VSB 1/2
STUTTGART      CLOUDY    43  39  87 SW8       30.07S
MONTICELLO     FOG       48  47  96 CALM      30.07S VSB 1/4

$$





USA.gov is the U.S. government's official web portal to all federal, state and local government web resources and services.